GW1337 Weather Reports


time (UTC)temp
C
wind
direction
speed
KPH
gust
KPH
rain 1hr
cm
rain 24hr
cm
rain mn
cm
humidity
%
barometer
mb
20260510204930 24 130 0.0 1.6 0.00 0.00 0.00 61 1013.4
20260510204426 25 37 0.0 1.6 0.00 0.00 0.00 61 1013.2
20260510203922 26 13 1.6 3.2 0.00 0.00 0.00 57 1013.2
20260510203420 27 15 0.0 1.6 0.00 0.00 0.00 48 1013.3
20260510202914 27 14 0.0 0.0 0.00 0.00 0.00 48 1013.0
20260510202410 28 15 1.6 1.6 0.00 0.00 0.00 48 1013.0
20260510201907 27 15 0.0 0.0 0.00 0.00 0.00 51 1013.1
20260510201404 26 15 0.0 1.6 0.00 0.00 0.00 48 1013.2
20260510200901 26 15 0.0 1.6 0.00 0.00 0.00 48 1013.2
20260510200400 27 15 0.0 1.6 0.00 0.00 0.00 47 1013.2
20260510195855 29 16 0.0 1.6 0.00 0.00 0.00 43 1013.2
20260510195352 28 16 0.0 1.6 0.00 0.00 0.00 46 1013.3
20260510194846 28 15 0.0 1.6 0.00 0.00 0.00 46 1013.4
20260510194343 29 18 1.6 3.2 0.00 0.00 0.00 44 1013.6
20260510193838 28 17 0.0 1.6 0.00 0.00 0.00 46 1013.7
20260510193333 28 17 0.0 3.2 0.00 0.00 0.00 44 1013.7
20260510192824 28 19 3.2 3.2 0.00 0.00 0.00 47 1013.4
20260510192319 28 20 1.6 1.6 0.00 0.00 0.00 53 1013.8
20260510191816 26 18 3.2 3.2 0.00 0.00 0.00 50 1013.9
20260510191312 25 133 0.0 1.6 0.00 0.00 0.00 54 1013.9
20260510190810 26 78 0.0 1.6 0.00 0.00 0.00 53 1013.9
20260510190307 26 148 1.6 1.6 0.00 0.00 0.00 52 1013.8
20260510185803 27 109 0.0 3.2 0.00 0.00 0.00 49 1013.9
20260510185305 27 28 0.0 0.0 0.00 0.00 0.00 47 1013.9
20260510184758 30 42 0.0 1.6 0.00 0.00 0.00 45 1013.9
20260510184255 30 12 0.0 1.6 0.00 0.00 0.00 42 1013.8
20260510183749 30 14 1.6 3.2 0.00 0.00 0.00 45 1014.1
20260510183244 30 15 0.0 3.2 0.00 0.00 0.00 45 1013.9
20260510182741 30 1 0.0 1.6 0.00 0.00 0.00 44 1013.8
20260510182237 30 11 0.0 0.0 0.00 0.00 0.00 46 1013.7
20260510181734 29 10 1.6 3.2 0.00 0.00 0.00 47 1013.9
20260510181231 29 11 1.6 1.6 0.00 0.00 0.00 47 1013.8
20260510180727 29 11 3.2 4.8 0.00 0.00 0.00 43 1013.7
20260510180224 28 0 1.6 3.2 0.00 0.00 0.00 46 1013.9
20260510175720 29 1 0.0 3.2 0.00 0.00 0.00 52 1014.1
20260510175216 29 1 1.6 3.2 0.00 0.00 0.00 48 1014.2
20260510174714 29 5 3.2 3.2 0.00 0.00 0.00 46 1014.0
20260510174211 30 15 0.0 0.0 0.00 0.00 0.00 47 1014.1
20260510173707 29 15 0.0 1.6 0.00 0.00 0.00 46 1014.1
20260510173203 28 15 1.6 3.2 0.00 0.00 0.00 46 1014.1
20260510172658 28 357 0.0 1.6 0.00 0.00 0.00 44 1014.2
20260510172155 28 354 0.0 11.3 0.00 0.00 0.00 45 1013.9
20260510171652 28 14 1.6 3.2 0.00 0.00 0.00 48 1014.1
20260510171149 28 15 0.0 1.6 0.00 0.00 0.00 45 1014.2
20260510170645 28 24 0.0 1.6 0.00 0.00 0.00 45 1014.1
20260510170142 28 25 0.0 3.2 0.00 0.00 0.00 49 1014.2
20260510165637 28 9 0.0 1.6 0.00 0.00 0.00 50 1014.2
20260510165133 28 9 1.6 1.6 0.00 0.00 0.00 48 1014.2
20260510164632 28 31 1.6 1.6 0.00 0.00 0.00 50 1014.2
20260510164128 28 31 0.0 3.2 0.00 0.00 0.00 52 1014.2
20260510163623 27 32 1.6 3.2 0.00 0.00 0.00 51 1014.1
20260510163120 27 27 1.6 3.2 0.00 0.00 0.00 55 1014.2
20260510162614 27 123 1.6 1.6 0.00 0.00 0.00 50 1014.2
20260510162111 26 26 0.0 0.0 0.00 0.00 0.00 52 1014.1
20260510161607 27 26 1.6 3.2 0.00 0.00 0.00 55 1013.9
20260510161104 27 26 0.0 3.2 0.00 0.00 0.00 53 1014.4
20260510160601 27 26 1.6 1.6 0.00 0.00 0.00 53 1014.0
20260510160100 27 25 1.6 3.2 0.00 0.00 0.00 51 1014.1
20260510155557 27 84 0.0 3.2 0.00 0.00 0.00 54 1014.3
20260510155054 26 68 0.0 1.6 0.00 0.00 0.00 55 1014.3
20260510154549 27 72 1.6 3.2 0.00 0.00 0.00 54 1014.3
20260510154045 26 99 1.6 3.2 0.00 0.00 0.00 57 1014.3
20260510153540 26 105 0.0 1.6 0.00 0.00 0.00 58 1014.7
20260510153037 26 105 0.0 0.0 0.00 0.00 0.00 58 1014.2
20260510152534 26 107 0.0 1.6 0.00 0.00 0.00 57 1014.4
20260510152030 26 44 0.0 3.2 0.00 0.00 0.00 61 1014.6
20260510151527 26 94 0.0 0.0 0.00 0.00 0.00 57 1014.4
20260510151024 25 93 1.6 1.6 0.00 0.00 0.00 59 1014.6
20260510150519 25 67 0.0 1.6 0.00 0.00 0.00 63 1014.4
20260510150016 25 71 0.0 1.6 0.00 0.00 0.00 59 1014.1
20260510145512 24 71 0.0 1.6 0.00 0.00 0.00 61 1014.2
20260510145008 24 71 0.0 1.6 0.00 0.00 0.00 63 1014.2
20260510144505 24 71 0.0 1.6 0.00 0.00 0.00 64 1014.2
20260510144001 23 67 0.0 0.0 0.00 0.00 0.00 65 1014.2
20260510143457 23 67 0.0 1.6 0.00 0.00 0.00 68 1014.2
20260510142954 22 68 0.0 0.0 0.00 0.00 0.00 66 1014.4
20260510142450 22 67 0.0 0.0 0.00 0.00 0.00 70 1014.5
20260510141947 21 68 0.0 1.6 0.00 0.00 0.00 70 1014.4
20260510141444 21 70 0.0 0.0 0.00 0.00 0.00 73 1014.4
20260510140941 20 68 0.0 0.0 0.00 0.00 0.00 76 1014.6
20260510140437 19 72 0.0 0.0 0.00 0.00 0.00 77 1014.5
20260510135936 18 45 0.0 1.6 0.00 0.00 0.00 78 1014.6
20260510135432 18 38 0.0 3.2 0.00 0.00 0.00 79 1014.6
20260510134930 18 115 1.6 1.6 0.00 0.00 0.00 80 1014.3
20260510134426 17 121 0.0 1.6 0.00 0.00 0.00 82 1014.2
20260510133923 17 104 0.0 0.0 0.00 0.00 0.00 83 1014.4
20260510133419 17 66 0.0 0.0 0.00 0.00 0.00 85 1014.7
20260510132914 16 108 0.0 1.6 0.00 0.00 0.00 85 1014.7
20260510132413 16 86 0.0 1.6 0.00 0.00 0.00 86 1014.5
20260510131909 16 82 0.0 0.0 0.00 0.00 0.00 87 1014.4
20260510131407 16 72 0.0 0.0 0.00 0.00 0.00 88 1014.7
20260510130903 15 71 0.0 0.0 0.00 0.00 0.00 89 1014.6
20260510130401 15 73 0.0 0.0 0.00 0.00 0.00 90 1014.7
20260510125857 15 73 0.0 0.0 0.00 0.00 0.00 91 1014.8
20260510125353 15 69 0.0 0.0 0.00 0.00 0.00 92 1014.6
20260510124850 14 69 0.0 0.0 0.00 0.00 0.00 93 1014.8
20260510124347 13 68 0.0 0.0 0.00 0.00 0.00 95 1014.6
20260510123843 13 67 0.0 0.0 0.00 0.00 0.00 96 1014.6
20260510123338 13 67 0.0 0.0 0.00 0.00 0.00 97 1014.6
20260510122835 13 67 0.0 0.0 0.00 0.00 0.00 98 1014.5
20260510122330 12 62 0.0 0.0 0.00 0.00 0.00 98 1014.6
20260510121827 12 91 0.0 0.0 0.00 0.00 0.00 99 1014.6
20260510121325 12 91 0.0 0.0 0.00 0.00 0.00 99 1014.2
20260510120822 12 91 0.0 0.0 0.00 0.00 0.00 99 1014.5
20260510120319 12 91 0.0 0.0 0.00 0.00 0.00 99 1014.3
20260510115814 11 89 0.0 0.0 0.00 0.00 0.00 99 1014.1
20260510115312 11 91 0.0 0.0 0.00 0.00 0.00 99 1013.9
20260510114807 11 99 0.0 0.0 0.00 0.00 0.00 99 1013.9
20260510114305 11 89 0.0 0.0 0.00 0.00 0.00 99 1014.1
20260510113800 11 87 0.0 0.0 0.00 0.00 0.00 99 1014.1
20260510113257 11 77 0.0 0.0 0.00 0.00 0.00 99 1014.1
20260510112753 11 78 0.0 0.0 0.00 0.00 0.00 99 1014.1
20260510112250 11 67 0.0 0.0 0.00 0.00 0.00 99 1013.8
20260510111746 11 68 0.0 0.0 0.00 0.00 0.00 99 1013.7
20260510111243 11 68 0.0 0.0 0.00 0.00 0.00 99 1013.7
20260510110742 11 68 0.0 0.0 0.00 0.00 0.00 99 1013.6
20260510110241 10 68 0.0 0.0 0.00 0.00 0.00 99 1013.3
20260510105740 10 68 0.0 0.0 0.00 0.00 0.00 99 1013.3
20260510105235 10 66 0.0 0.0 0.00 0.00 0.00 99 1013.5
20260510104732 10 66 0.0 0.0 0.00 0.00 0.00 99 1013.6
20260510104230 10 66 0.0 0.0 0.00 0.00 0.00 99 1013.3
20260510103726 10 66 0.0 0.0 0.00 0.00 0.00 99 1013.3
20260510103223 10 73 0.0 0.0 0.00 0.00 0.00 99 1013.2
20260510102723 10 88 0.0 0.0 0.00 0.00 0.00 99 1012.8
20260510102219 10 88 0.0 0.0 0.00 0.00 0.00 99 1012.6
20260510101716 10 88 0.0 0.0 0.00 0.00 0.00 99 1012.9
20260510101215 10 88 0.0 0.0 0.00 0.00 0.00 99 1012.8
20260510100710 10 88 0.0 0.0 0.00 0.00 0.00 99 1012.9
20260510100209 10 88 0.0 0.0 0.00 0.00 0.00 99 1013.0
20260510095704 10 88 0.0 0.0 0.00 0.00 0.00 99 1013.2
20260510095159 10 88 0.0 0.0 0.00 0.00 0.00 99 1013.0
20260510094657 10 91 0.0 0.0 0.00 0.00 0.00 99 1012.9
20260510094154 10 90 0.0 0.0 0.00 0.00 0.00 99 1012.5
20260510093650 10 95 0.0 0.0 0.00 0.00 0.00 99 1012.6
20260510093147 10 73 0.0 1.6 0.00 0.00 0.00 99 1012.7
20260510092643 10 90 0.0 0.0 0.00 0.00 0.00 99 1012.7
20260510092139 10 101 0.0 1.6 0.00 0.00 0.00 99 1012.5
20260510091635 10 85 0.0 0.0 0.00 0.00 0.00 99 1012.5
20260510091131 10 87 0.0 0.0 0.00 0.00 0.00 99 1012.4
20260510090629 10 87 0.0 0.0 0.00 0.00 0.00 99 1012.8
20260510090125 10 60 1.6 1.6 0.00 0.00 0.00 99 1012.7
20260510085620 10 60 0.0 0.0 0.00 0.00 0.00 99 1012.7
20260510085116 10 90 0.0 1.6 0.00 0.00 0.00 99 1012.5
20260510084612 10 94 0.0 0.0 0.00 0.00 0.00 99 1012.5
20260510084109 10 68 0.0 0.0 0.00 0.00 0.00 99 1011.9
20260510083605 10 67 0.0 0.0 0.00 0.00 0.00 99 1012.0
20260510083101 10 67 0.0 0.0 0.00 0.00 0.00 99 1012.0
20260510082558 10 67 0.0 0.0 0.00 0.00 0.00 99 1011.9
20260510082054 10 67 0.0 0.0 0.00 0.00 0.00 99 1011.9
20260510081549 10 67 0.0 0.0 0.00 0.00 0.00 99 1011.9
20260510081045 10 67 0.0 0.0 0.00 0.00 0.00 99 1011.9
20260510080544 10 67 0.0 0.0 0.00 0.00 0.00 99 1011.7
20260510080041 10 67 0.0 0.0 0.00 0.00 0.00 99 1011.6
20260510075539 10 67 0.0 0.0 0.00 0.00 0.00 99 1011.8
20260510075035 10 68 0.0 0.0 0.00 0.00 0.00 99 1011.7
20260510074533 10 67 0.0 0.0 0.00 0.00 0.00 99 1011.8
20260510074028 10 67 0.0 0.0 0.00 0.00 0.00 99 1011.9
20260510073524 10 67 0.0 0.0 0.00 0.00 0.00 99 1011.8
20260510073022 10 67 0.0 0.0 0.00 0.00 0.00 99 1011.5
20260510072518 10 67 0.0 0.0 0.00 0.00 0.00 99 1011.7
20260510072014 10 67 0.0 0.0 0.00 0.00 0.00 99 1011.4
20260510071510 10 67 0.0 0.0 0.00 0.00 0.00 99 1011.3
20260510071009 10 67 0.0 0.0 0.00 0.00 0.00 99 1011.2
20260510070505 10 67 0.0 0.0 0.00 0.00 0.00 99 1011.2
20260510070001 10 67 0.0 0.0 0.00 0.00 0.00 99 1011.1
20260510065458 10 67 0.0 0.0 0.00 0.00 0.00 99 1011.3
20260510064954 10 67 0.0 0.0 0.00 0.00 0.00 99 1011.1
20260510064451 10 67 0.0 0.0 0.00 0.00 0.00 99 1011.1
20260510063948 10 67 0.0 0.0 0.00 0.00 0.00 99 1011.3
20260510063444 10 67 0.0 0.0 0.00 0.00 0.00 99 1011.2
20260510062942 10 67 0.0 0.0 0.00 0.00 0.00 99 1011.3
20260510062437 10 67 0.0 0.0 0.00 0.00 0.00 99 1011.4
20260510061932 10 67 0.0 0.0 0.00 0.00 0.00 99 1011.3
20260510061429 10 67 0.0 0.0 0.00 0.00 0.00 99 1011.6
20260510060925 10 68 0.0 0.0 0.00 0.00 0.00 99 1011.5
20260510060423 10 67 0.0 0.0 0.00 0.00 0.00 99 1011.6
20260510055919 10 67 0.0 0.0 0.00 0.00 0.00 99 1011.4
20260510055415 10 68 0.0 0.0 0.00 0.00 0.00 99 1011.4
20260510054913 10 68 0.0 0.0 0.00 0.00 0.00 99 1011.7
20260510054408 10 67 0.0 0.0 0.00 0.00 0.00 99 1011.5
20260510053903 10 67 0.0 0.0 0.00 0.00 0.00 99 1011.5
20260510053359 10 67 0.0 0.0 0.00 0.00 0.00 99 1011.5
20260510052855 10 67 0.0 0.0 0.00 0.00 0.00 99 1011.7
20260510052351 10 67 0.0 0.0 0.00 0.00 0.00 99 1011.8
20260510051847 10 68 0.0 0.0 0.00 0.00 0.00 99 1011.8
20260510051344 10 67 0.0 0.0 0.00 0.00 0.00 99 1011.7
20260510050841 10 68 0.0 0.0 0.00 0.00 0.00 99 1012.0
20260510050338 10 67 0.0 0.0 0.00 0.00 0.00 99 1011.8
20260510045835 10 67 0.0 0.0 0.00 0.00 0.00 99 1011.8
20260510045332 11 68 0.0 0.0 0.00 0.00 0.00 99 1011.9
20260510044829 11 68 0.0 0.0 0.00 0.00 0.00 99 1011.7
20260510044326 11 67 0.0 0.0 0.00 0.00 0.00 99 1011.9
20260510043822 11 67 0.0 0.0 0.00 0.00 0.00 99 1011.9
20260510043318 11 67 0.0 0.0 0.00 0.00 0.00 99 1012.0
20260510042816 11 67 0.0 0.0 0.00 0.00 0.00 99 1012.0
20260510042312 11 67 0.0 0.0 0.00 0.00 0.00 99 1011.9
20260510041808 11 67 0.0 0.0 0.00 0.00 0.00 99 1012.1
20260510041306 11 67 0.0 0.0 0.00 0.00 0.00 98 1012.1
20260510040803 11 67 0.0 0.0 0.00 0.00 0.00 98 1011.9
20260510040259 11 67 0.0 0.0 0.00 0.00 0.00 98 1012.0
20260510035755 11 67 0.0 0.0 0.00 0.00 0.00 98 1012.1
20260510035251 11 67 0.0 0.0 0.00 0.00 0.00 98 1011.8
20260510034747 11 67 0.0 0.0 0.00 0.00 0.00 98 1012.0
20260510034245 11 67 0.0 0.0 0.00 0.00 0.00 98 1011.9
20260510033741 11 67 0.0 0.0 0.00 0.00 0.00 98 1012.0
20260510033238 11 67 0.0 0.0 0.00 0.00 0.00 98 1012.3
20260510032734 11 67 0.0 0.0 0.00 0.00 0.00 98 1011.8
20260510032231 11 67 0.0 0.0 0.00 0.00 0.00 97 1012.0
20260510031726 11 67 0.0 0.0 0.00 0.00 0.00 97 1011.9
20260510031222 11 67 0.0 0.0 0.00 0.00 0.00 97 1011.8
20260510030721 11 67 0.0 0.0 0.00 0.00 0.00 97 1011.7
20260510030219 11 67 0.0 0.0 0.00 0.00 0.00 97 1011.6
20260510025717 11 67 0.0 0.0 0.00 0.00 0.00 96 1011.4
20260510025213 11 67 0.0 0.0 0.00 0.00 0.00 96 1011.5
20260510024710 12 57 0.0 0.0 0.00 0.00 0.00 96 1011.5
20260510024207 12 57 0.0 0.0 0.00 0.00 0.00 96 1011.6
20260510023702 12 57 0.0 0.0 0.00 0.00 0.00 95 1011.5
20260510023200 12 57 0.0 0.0 0.00 0.00 0.00 95 1011.6
20260510022656 12 57 0.0 0.0 0.00 0.00 0.00 95 1011.6
20260510022150 12 57 0.0 0.0 0.00 0.00 0.00 94 1011.7
20260510021646 12 57 0.0 0.0 0.00 0.00 0.00 94 1011.7
20260510021144 12 57 0.0 0.0 0.00 0.00 0.00 94 1011.6
20260510020638 12 57 0.0 0.0 0.00 0.00 0.00 94 1011.6
20260510020133 12 57 0.0 0.0 0.00 0.00 0.00 93 1011.5
20260510015630 12 57 0.0 0.0 0.00 0.00 0.00 93 1011.5
20260510015127 12 57 0.0 0.0 0.00 0.00 0.00 93 1011.3
20260510014621 13 57 0.0 0.0 0.00 0.00 0.00 93 1011.4
20260510014120 13 57 0.0 0.0 0.00 0.00 0.00 92 1011.4
20260510013619 13 57 0.0 0.0 0.00 0.00 0.00 92 1011.4
20260510013115 13 57 0.0 0.0 0.00 0.00 0.00 92 1011.5
20260510012615 13 57 0.0 0.0 0.00 0.00 0.00 91 1011.4
20260510012111 13 57 0.0 0.0 0.00 0.00 0.00 91 1011.3
20260510011611 13 57 0.0 0.0 0.00 0.00 0.00 91 1011.2
20260510011107 13 57 0.0 0.0 0.00 0.00 0.00 90 1011.1
20260510010603 13 57 0.0 0.0 0.00 0.00 0.00 90 1011.0
20260510010101 13 57 0.0 0.0 0.00 0.00 0.00 90 1011.0
20260510005556 13 57 0.0 0.0 0.00 0.00 0.00 89 1010.9
20260510005054 13 57 0.0 0.0 0.00 0.00 0.00 88 1010.9
20260510004552 13 57 0.0 0.0 0.00 0.00 0.00 88 1011.0
20260510004049 14 57 0.0 0.0 0.00 0.00 0.00 87 1011.1
20260510003546 14 57 0.0 0.0 0.00 0.00 0.00 86 1011.2
20260510003041 14 57 0.0 0.0 0.00 0.00 0.00 85 1011.0
20260510002537 15 57 0.0 0.0 0.00 0.00 0.00 85 1011.0
20260510002034 15 56 0.0 0.0 0.00 0.00 0.00 85 1010.9
20260510001531 15 55 1.6 1.6 0.00 0.00 0.00 84 1010.8
20260510001030 15 55 0.0 0.0 0.00 0.00 0.00 83 1011.0
20260510000524 15 55 0.0 0.0 0.00 0.00 0.00 83 1010.8
20260510000022 15 55 0.0 0.0 0.00 0.00 0.00 82 1011.0
20260509235518 15 98 0.0 0.0 0.00 0.00 0.00 82 1011.1
20260509235015 15 99 0.0 0.0 0.00 0.00 0.00 82 1010.8
20260509234511 15 100 0.0 0.0 0.00 0.00 0.00 81 1010.9
20260509234010 16 85 1.6 1.6 0.00 0.00 0.00 81 1010.8
20260509233507 16 90 0.0 1.6 0.00 0.00 0.00 81 1011.1
20260509233004 16 73 0.0 0.0 0.00 0.00 0.00 80 1010.9
20260509232501 16 73 0.0 0.0 0.00 0.00 0.00 80 1010.8
20260509231956 16 75 0.0 0.0 0.00 0.00 0.00 80 1010.9
20260509231453 16 94 0.0 1.6 0.00 0.00 0.00 80 1010.9
20260509230951 16 83 0.0 0.0 0.00 0.00 0.00 79 1010.8
20260509230448 16 83 0.0 1.6 0.00 0.00 0.00 79 1010.6
20260509225944 16 86 0.0 0.0 0.00 0.00 0.00 78 1010.8
20260509225440 16 86 0.0 0.0 0.00 0.00 0.00 78 1010.6
20260509224936 16 86 0.0 0.0 0.00 0.00 0.00 78 1010.7
20260509224432 16 86 0.0 0.0 0.00 0.00 0.00 78 1010.7
20260509223929 17 89 0.0 1.6 0.00 0.00 0.00 77 1010.9
20260509223425 17 102 0.0 1.6 0.00 0.00 0.00 77 1010.7
20260509222923 17 104 0.0 0.0 0.00 0.00 0.00 76 1010.9
20260509222418 17 112 1.6 1.6 0.00 0.00 0.00 76 1010.7
20260509221914 17 342 3.2 8.0 0.00 0.00 0.00 75 1010.8
20260509221411 17 77 1.6 1.6 0.00 0.00 0.00 75 1010.6
20260509220907 17 79 0.0 0.0 0.00 0.00 0.00 76 1010.7
20260509220403 16 61 0.0 1.6 0.00 0.00 0.00 76 1011.0
20260509215859 16 66 0.0 0.0 0.00 0.00 0.00 76 1010.8
20260509215355 17 55 0.0 1.6 0.00 0.00 0.00 76 1010.6
20260509214852 17 41 1.6 1.6 0.00 0.00 0.00 75 1010.9
20260509214349 17 71 0.0 1.6 0.00 0.00 0.00 75 1010.8
20260509213847 16 71 0.0 1.6 0.00 0.00 0.00 76 1010.8
20260509213342 17 52 0.0 3.2 0.00 0.00 0.00 75 1010.8
20260509212840 17 63 0.0 0.0 0.00 0.00 0.00 75 1010.7
20260509212337 17 55 0.0 1.6 0.00 0.00 0.00 74 1010.8
20260509211833 17 54 0.0 1.6 0.00 0.00 0.00 74 1010.6
20260509211329 17 54 0.0 0.0 0.00 0.00 0.00 73 1010.7
20260509210825 17 54 0.0 1.6 0.00 0.00 0.00 74 1010.8
20260509210323 17 45 1.6 1.6 0.00 0.00 0.00 73 1010.5
20260509205823 17 45 0.0 1.6 0.00 0.00 0.00 72 1010.5